Presure
129 119 121 123 116 111 107 137 148 101 116 126 137 128 127 176 190 181 179 179 182 176 169 171 179 168 166 165 165 158 170 154 170 149 153 157 154 155 155 157 162 160 160 158 154 159 150 149 151
145 131 122 134 125 114 108 108 110 118 122 129 131 124 127 175 160 173 192 189 191 190 188 177 171 162 177 168 166 167 160 161 167 155 159 169 169 162 167 162 167 170 165 162 170 162 158 162 166
124 134 125 116 120 143 122 139 149 189 177 126 141 133 130 130 176 185 181 190 176 159 176 199 194 188 176 176 174 162 158 166 158 162 161 163 175 174 172 168 169 172 168 174 173 172 173 171 171
126 131 104 128 130 133 131 121 118 99 154 132 120 125 135 130 169 165 169 199 194 167 214 144 191 207 194 126 165 186 181 173 121 117 183 173 169 164 175 174 165 170 173 177 172 170 152 154 161
129 109 126 138 111 111 125 126 138 167 132 132 125 125 127 134 193 159 168 173 153 155 187 157 134 133 175 178 133 171 116 187 168 171 164 173 173 164 171 176 166 162 165 163 163 163 149 160 138
131 132 120 123 136 117 111 130 157 95 131 128 127 125 133 129 159 159 160 176 172 165 149 153 204 127 128 123 121 146 115 181 176 165 172 178 180 181 180 186 180 176 164 168 168 174 167 169 157
120 131 136 143 104 101 132 164 146 133 151 130 135 132 127 180 180 173 153 158 194 172 145 174 267 147 221 191 125 136 167 182 172 178 189 176 189 196 300 291 297 283 269 258 265 252 217 170 194
113 124 118 137 137 131 127 123 133 135 149 146 131 160 166 133 174 177 159 149 184 182 165 143 136 136 138 135 132 128 201 137 182 177 183 171 213 210 236 161 238 321 301 272 251 245 241 229 201
120 132 122 140 111 128 110 123 138 137 141 142 143 142 163 134 176 183 176 151 170 182 180 178 178 169 128 127 125 177 184 181 188 203 197 159 183 192 164 184 228 246 238 189 251 203 230 229 222
152 138 121 116 138 138 117 142 129 148 147 152 133 135 154 159 188 190 175 160 142 144 186 171 176 174 236 124 125 125 188 191 203 204 167 215 176 202 213 193 194 214 188 187 180 183 243 241 231
150 163 141 150 163 130 131 134 132 141 156 145 146 151 147 149 169 195 167 172 143 141 186 190 162 237 221 181 159 149 210 163 161 149 186 202 221 193 208 190 209 214 207 191 196 197 193 189 182
138 157 160 137 152 150 137 128 147 125 144 143 144 140 147 157 146 164 169 152 187 143 140 215 236 219 237 189 188 184 168 165 178 209 199 210 227 197 200 192 182 202 209 202 191 202 196 188 181
122 137 133 146 125 126 126 120 126 148 129 139 147 135 151 143 150 162 160 162 185 254 153 187 236 245 275 208 193 161 177 225 147 153 165 199 216 198 201 200 187 195 192 185 180 195 185 187 192
129 150 143 117 142 134 136 136 118 132 139 128 149 128 151 145 143 150 159 154 152 208 192 176 132 249 222 247 191 177 156 152 144 199 142 188 202 213 192 196 183 177 197 185 186 184 185 184 179
138 144 147 118 128 137 126 130 119 134 143 131 147 125 147 119 154 141 144 160 147 160 161 162 156 149 256 177 156 173 170 176 163 149 148 163 188 201 194 132 137 207 197 214 203 200 198 182 182
134 149 138 131 130 143 128 119 116 140 122 147 146 136 139 119 138 155 142 147 145 148 150 181 156 137 162 143 191 153 165 171 156 164 211 154 156 158 196 234 205 186 191 168 211 216 223 207 209
117 137 146 148 116 141 144 136 127 129 139 118 145 140 132 120 138 126 152 143 141 156 150 172 161 158 139 161 154 167 158 150 150 162 164 162 192 222 211 228 227 197 229 230 228 229 230 214 218
131 132 128 156 127 148 142 140 148 120 147 146 144 135 135 129 122 136 144 149 155 136 155 153 143 149 143 169 140 137 143 146 180 151 146 193 193 168 167 160 170 217 198 227 283 319 317 302 250
127 148 132 148 152 139 143 131 137 118 123 146 126 132 141 114 117 131 114 132 132 160 142 146 148 151 165 145 144 162 161 133 133 152 145 120 128 158 152 189 194 182 218 216 238 274 175 170 165
134 129 138 149 147 155 149 139 147 139 134 143 147 117 145 148 129 120 127 132 129 149 161 138 159 144 152 155 150 150 166 147 140 141 130 153 151 158 160 203 224 189 168 167 174 168 130 125 155
146 147 140 168 152 127 151 129 132 133 152 133 138 148 147 133 148 144 135 131 140 131 130 151 134 152 150 136 144 145 148 144 151 147 135 141 131 152 158 138 196 175 167 152 136 156 177 171 161
132 142 139 146 155 138 144 126 144 151 143 142 112 143 142 124 139 148 139 135 132 134 130 153 135 151 135 142 158 134 141 141 140 158 151 148 144 144 151 138 152 148 169 169 161 190 177 182 154
144 130 133 150 137 145 144 147 146 149 137 136 137 136 136 140 131 138 138 145 136 132 132 148 148 120 129 145 143 145 134 146 117 147 150 137 141 132 139 141 135 131 150 152 148 135 137 153 133
135 131 142 136 140 147 176 148 167 143 132 148 154 130 132 139 141 109 139 143 138 143 142 133 129 126 130 129 130 148 136 144 136 152 149 141 156 148 135 133 135 136 128 133 134 137 153 148 149
140 137 113 126 136 136 160 135 147 150 149 157 154 139 131 132 138 143 138 127 134 135 127 133 133 137 137 127 129 135 134 136 137 143 142 148 139 140 146 139 133 132 130 132 145 145 151 124 131
144 143 141 130 136 141 148 165 120 130 159 142 155 131 139 136 141 143 141 128 142 132 141 134 135 144 125 128 126 138 135 109 136 141 141 132 140 140 137 143 143 136 132 129 135 135 142 130 149
149 150 147 143 140 138 122 126 123 120 157 154 153 142 131 143 128 141 139 121 130 121 144 144 143 130 126 135 140 141 147 133 145 123 123 125 147 133 126 140 134 132 129 136 129 128 135 135 135
143 143 153 146 150 144 137 118 138 148 129 153 144 143 130 132 152 141 131 137 151 135 123 152 148 133 124 123 135 130 125 123 136 141 142 138 131 127 131 150 132 130 127 133 132 128 122 126 135
86 145 110 92 149 154 144 146 143 128 148 142 143 173 125 140 129 151 138 130 137 136 142 129 129 145 141 123 124 122 137 131 128 131 139 135 140 131 140 141 144 148 132 131 126 122 126 150 129
149 152 138 128 137 150 152 148 137 126 132 150 138 155 134 136 134 126 149 141 133 145 141 132 132 140 129 134 137 129 123 128 127 128 129 124 126 131 139 154 133 125 131 148 138 140 143 142 125
Wind_Speed
14 15 18 15 14 20 23 24 23 27 24 24 26 28 27 26 22 22 19 17 14 11 10 7 3 5 3 3 5 3 13 4 13 11 14 16 19 22 24 26 30 29 32 36 38 39 39 43 45
11 14 15 13 10 16 20 21 24 20 20 20 23 24 24 28 31 29 16 16 11 6 2 3 4 6 8 5 6 9 7 9 18 14 17 18 25 27 27 28 33 33 35 38 36 40 41 43 45
10 11 15 20 14 17 18 21 26 28 25 20 21 22 22 22 29 28 31 23 22 20 17 3 7 8 7 11 13 9 7 16 12 19 20 21 23 23 25 26 27 29 30 31 31 32 31 33 33
7 9 13 15 11 14 17 16 18 22 23 19 23 21 23 23 27 29 30 30 24 21 13 18 13 3 9 23 1 16 15 9 19 20 16 14 13 14 20 20 19 23 27 30 30 26 17 19 20
6 16 11 11 22 20 16 19 19 28 21 17 18 17 20 23 31 25 30 29 21 20 21 19 17 18 9 7 22 7 19 4 2 4 2 9 13 11 17 21 20 19 23 22 24 24 17 23 12
5 5 12 15 12 17 18 18 23 19 19 13 14 16 19 22 27 23 28 31 27 23 20 19 13 16 19 21 16 14 16 5 5 5 4 9 13 17 21 26 24 25 22 26 26 29 28 28 22
12 8 8 14 21 19 15 30 20 16 20 12 17 19 18 30 33 27 27 28 34 25 16 15 12 19 4 7 17 21 12 5 6 1 5 5 14 16 10 11 10 13 14 11 9 14 21 27 22
13 11 14 12 15 14 15 15 17 15 21 21 14 34 26 23 27 26 24 28 33 30 22 14 16 19 19 19 22 20 1 26 7 12 10 13 16 14 17 6 15 7 5 10 10 13 16 18 16
15 12 15 14 16 14 14 16 19 17 17 17 22 26 37 24 30 29 28 25 32 31 29 30 23 18 20 20 19 22 16 15 10 5 6 14 17 11 10 20 23 30 21 20 16 15 9 11 16
8 17 14 12 15 16 13 18 16 18 17 27 17 20 34 35 32 31 30 25 26 28 28 28 29 23 19 13 15 17 18 15 9 12 21 16 17 12 15 23 24 18 19 16 10 16 20 19 18
11 14 19 20 9 13 18 17 16 15 20 20 24 29 29 33 37 36 32 33 25 26 29 31 29 27 25 29 22 23 13 26 25 24 19 18 17 25 24 25 25 16 10 19 21 23 23 24 21
23 17 15 13 14 10 17 14 15 16 14 18 22 18 29 32 31 38 37 27 33 24 28 30 30 28 27 30 27 27 27 29 31 29 28 25 18 26 27 27 30 22 22 21 21 18 18 19 18
22 26 18 16 10 14 18 14 15 10 13 11 21 12 29 27 34 37 35 33 43 34 33 32 34 33 30 28 29 24 31 22 32 36 35 34 23 30 24 26 28 22 21 22 23 17 17 19 15
34 30 20 12 16 14 18 15 16 11 8 10 22 13 27 27 31 33 35 35 37 42 42 43 23 35 37 33 35 36 34 35 35 37 35 36 34 29 30 25 26 25 20 21 19 18 16 17 19
38 35 22 13 12 17 14 15 16 14 9 8 18 12 24 14 31 30 30 36 32 40 41 39 38 32 37 46 35 42 38 40 40 35 35 44 41 35 35 38 39 20 18 14 14 13 12 17 16
39 36 28 17 19 20 13 15 16 9 13 8 13 11 18 12 22 31 28 32 27 30 30 42 35 23 42 30 47 37 41 46 37 43 55 41 45 42 35 28 23 23 25 25 14 9 2 10 10
24 44 40 38 16 23 18 16 16 13 13 14 12 12 9 12 21 19 30 28 27 30 28 38 38 33 23 41 38 45 39 35 36 48 47 47 46 40 41 37 29 28 26 24 17 10 7 10 11
43 39 26 45 28 26 22 19 17 17 12 14 13 10 9 10 10 22 25 28 30 25 29 32 28 28 25 46 26 27 30 32 46 44 40 54 54 52 52 46 43 37 42 40 26 15 12 14 16
43 56 35 40 44 32 31 20 19 18 15 14 11 9 10 12 5 10 11 22 21 29 23 27 29 28 37 27 30 43 48 23 25 48 43 17 35 56 52 48 48 46 59 63 56 49 66 60 59
54 36 47 50 42 43 34 28 32 25 17 15 16 12 15 19 4 9 16 18 19 24 28 23 31 24 28 30 32 34 49 34 32 36 27 51 52 55 55 52 45 54 45 52 58 51 50 45 26
63 59 49 57 51 18 38 21 23 24 22 20 18 18 19 11 22 22 16 14 18 15 18 22 19 26 27 22 26 29 33 31 42 40 29 39 34 53 55 48 53 48 49 48 42 38 35 32 31
49 53 47 52 54 37 38 26 35 31 24 23 16 21 19 11 13 21 17 14 12 13 13 21 17 24 22 23 26 19 24 26 29 45 41 44 42 46 54 46 51 47 41 36 36 38 38 35 33
62 49 48 58 45 45 42 39 38 34 27 21 20 19 18 18 13 12 13 19 11 9 11 23 19 13 16 21 21 21 20 25 21 30 36 29 35 30 41 46 41 37 47 45 42 41 48 48 37
60 55 58 53 53 51 60 42 43 35 28 31 32 23 19 19 20 12 13 16 12 14 13 11 11 12 13 14 16 17 19 20 27 27 31 29 39 37 31 32 37 39 33 38 37 39 45 40 46
68 69 32 43 51 41 57 36 42 35 40 35 35 27 24 23 22 22 17 10 11 8 3 5 10 12 9 10 11 15 19 21 21 23 27 30 27 26 37 34 31 33 32 37 45 43 43 31 37
75 74 68 47 50 49 49 51 37 36 45 37 34 29 29 28 24 22 18 13 15 10 9 4 5 15 7 7 6 10 13 7 20 19 20 23 26 26 25 31 31 31 30 30 36 38 38 35 43
77 79 72 62 53 45 36 42 37 31 48 42 38 38 30 27 24 24 21 17 15 13 10 12 13 7 5 5 8 8 10 12 15 12 14 17 20 19 22 23 24 24 24 27 28 32 34 35 38
73 64 75 70 69 57 49 36 47 51 40 43 42 41 31 31 31 30 22 20 18 18 16 12 16 14 10 8 4 2 4 5 12 15 16 15 12 14 17 18 18 20 21 22 23 23 22 26 28
19 74 36 20 71 69 56 53 50 43 50 42 46 44 34 38 31 32 26 23 22 18 20 19 19 15 15 13 10 7 4 3 3 8 14 12 12 10 10 15 17 14 19 20 20 18 21 25 23
79 80 64 55 62 66 65 58 50 45 44 46 41 49 40 41 39 27 33 32 25 22 22 22 22 19 21 18 15 14 11 7 4 4 2 2 4 11 15 13 12 15 18 15 21 22 21 22 21
Wind_Direction
85 87 86 74 72 68 74 48 32 87 48 30 41 37 34 47 54 52 48 38 30 35 31 35 173 5 7 341 191 284 215 304 228 320 292 276 273 269 270 269 270 264 267 264 263 263 268 268 270
57 82 94 67 66 86 75 80 64 54 50 44 40 43 38 49 54 53 51 52 45 25 341 336 350 39 235 265 276 247 303 270 253 293 280 268 265 264 267 269 273 273 269 267 271 267 267 268 269
108 86 108 95 82 47 71 46 32 39 43 50 49 49 54 39 59 53 55 48 57 66 58 273 264 260 253 240 243 276 302 252 277 257 265 262 267 276 276 276 280 276 276 276 274 272 272 270 272
123 101 114 89 83 67 65 60 50 82 42 47 45 32 46 46 57 60 60 40 45 60 26 72 42 236 233 73 193 244 247 255 68 64 265 270 275 281 275 275 277 278 277 276 273 271 270 273 273
137 106 90 75 101 90 72 55 43 53 72 45 56 46 42 46 52 54 59 57 70 67 46 65 77 74 77 94 71 79 79 251 58 340 345 284 284 303 294 286 280 286 275 271 266 262 274 265 299
140 134 110 93 72 97 93 61 46 97 60 48 55 58 54 54 53 58 60 53 56 59 68 67 53 74 74 77 79 86 79 65 56 54 329 302 298 294 293 288 281 273 278 269 266 260 260 259 264
135 158 134 84 127 133 67 33 52 66 51 53 51 52 55 48 56 60 57 62 51 58 78 71 68 61 91 81 67 56 74 39 76 19 310 15 332 315 296 281 265 258 249 237 213 216 239 254 249
155 169 150 117 101 101 91 77 58 56 46 54 56 49 46 52 51 60 64 62 56 57 66 76 72 72 67 59 52 55 275 44 91 46 27 53 46 46 61 356 44 125 133 134 149 167 192 213 228
188 171 162 126 137 116 119 86 51 49 46 51 62 61 51 52 47 53 60 63 59 54 56 57 55 69 65 59 58 74 82 64 44 36 63 44 50 86 39 48 48 68 73 82 93 85 120 168 197
193 187 181 156 122 115 116 64 73 41 48 65 57 66 60 53 51 57 60 67 67 64 48 60 55 61 73 73 65 61 87 82 64 58 51 57 44 64 55 55 50 65 44 47 55 78 96 109 115
197 183 191 131 88 137 118 98 88 47 59 65 66 69 64 61 49 54 64 60 70 69 58 56 66 66 73 74 70 65 71 65 59 50 70 59 66 49 47 61 62 58 38 53 55 77 83 90 97
218 175 168 161 130 120 110 107 66 94 62 71 76 68 70 60 63 57 59 68 60 72 74 59 61 66 83 75 70 68 67 60 68 65 67 57 69 45 39 54 65 54 58 48 56 72 94 110 112
239 228 221 181 188 175 127 121 112 70 80 65 75 75 71 71 64 62 66 67 61 56 68 65 65 70 72 83 83 77 68 81 68 59 60 55 51 60 53 53 62 53 63 71 72 65 82 90 99
229 211 184 174 176 160 152 139 120 109 89 94 81 66 72 74 73 66 63 70 71 60 66 66 82 70 71 86 81 72 69 68 63 65 55 62 59 60 59 62 66 64 51 62 67 65 62 70 80
220 223 207 190 241 186 150 143 135 125 108 110 98 95 83 78 74 77 71 67 73 74 73 75 82 75 71 80 79 74 69 68 67 63 59 60 57 58 58 60 63 45 56 51 59 70 77 82 85
228 220 203 201 221 193 186 146 139 142 128 113 108 115 101 98 84 73 77 72 79 81 83 68 75 79 79 85 78 75 75 72 69 66 64 63 60 56 63 60 62 57 59 67 68 73 92 86 93
206 220 203 215 196 215 198 174 163 156 164 139 125 121 127 109 88 88 76 83 77 73 82 74 74 77 77 81 79 79 77 71 66 67 64 65 61 64 68 67 68 67 70 64 59 75 125 103 96
216 238 232 212 213 210 204 185 209 151 183 151 142 146 133 113 113 95 84 80 72 80 74 80 81 78 80 80 80 80 75 73 70 69 65 64 61 59 61 58 56 76 74 69 41 67 103 128 120
232 220 235 218 215 213 205 200 185 160 169 167 169 166 145 129 127 102 105 90 86 70 73 78 79 79 79 80 80 79 80 78 77 70 67 68 62 59 58 63 67 76 84 82 79 71 99 102 107
227 226 223 220 221 221 209 205 212 202 197 179 165 161 144 136 169 137 110 107 103 81 72 72 76 77 73 73 79 77 80 80 79 76 71 70 65 62 59 65 74 90 79 87 90 86 53 49 79
220 219 222 219 221 231 215 204 203 206 199 196 181 163 155 178 136 131 132 120 101 106 96 78 74 79 78 72 76 80 79 77 78 73 71 70 71 67 62 60 71 77 83 77 65 59 65 79 85
225 227 229 226 221 228 225 209 219 211 202 202 183 174 175 188 170 139 145 141 127 115 104 79 79 81 77 73 71 68 67 74 72 76 78 76 74 71 60 66 60 63 66 67 62 62 64 68 75
219 224 227 223 233 232 227 221 214 218 215 215 214 197 196 187 217 179 161 142 144 127 108 97 86 97 83 81 74 69 61 58 75 73 77 69 75 64 69 67 67 66 56 57 59 68 70 67 69
222 225 220 224 228 223 221 226 219 221 222 206 196 217 201 199 202 203 185 152 155 139 130 114 101 92 83 74 80 65 63 56 51 59 69 66 72 75 69 64 64 63 62 57 56 54 51 64 62
219 222 221 222 225 222 221 216 205 208 220 204 196 207 207 214 214 209 192 210 172 176 187 131 118 99 72 73 62 74 70 59 57 43 47 56 55 54 76 76 69 62 54 56 50 45 44 53 51
217 220 222 225 221 217 218 218 212 217 213 211 198 223 204 213 215 217 197 221 171 195 196 188 132 115 140 108 78 49 61 72 68 68 59 54 52 50 39 70 66 73 62 53 57 52 42 38 43
217 218 221 225 226 220 216 213 219 220 212 202 197 204 223 210 221 223 214 215 224 235 178 174 162 190 202 134 82 34 30 54 54 68 64 64 62 54 55 48 60 65 68 64 60 54 51 46 39
225 226 220 224 227 224 215 205 211 207 220 207 210 205 225 216 213 221 230 224 190 219 233 168 168 213 227 239 131 116 129 106 23 20 34 49 54 63 53 26 46 44 53 53 54 52 42 42 47
188 221 209 204 227 227 222 216 212 221 212 217 213 218 217 213 228 215 217 239 230 219 198 238 238 203 178 258 254 249 151 12 40 34 9 22 21 32 27 38 34 30 32 31 34 39 39 28 37
220 219 220 226 229 228 227 224 207 223 221 211 220 206 223 217 229 230 207 220 238 212 215 228 240 221 255 221 212 249 255 222 230 294 321 92 35 8 8 6 38 27 21 11 12 15 23 15 17